sat.trackr.live / text

‹ back to catalog

FLOCK 4Q-7

NORAD 58318 · 2023-174BQ

PAYLOAD ACTIVE UNKNOWN

§ Identity

Operator
Country
US
Launch date
2023-11-11
Launch site
AFWTR
Launch vehicle
Mass (kg)
RCS (m²)

Purposes: earth_obs

External: N2YO · Heavens-Above · Gunter

§ Orbital elements

Epoch: 2026-08-26T05:24:24.064992Z

Period
92.33 min
Inclination
97.3945°
Eccentricity
0.0005168
Mean motion
15.59694907 rev/d
Perigee alt
385.0 km
Apogee alt
392.0 km
Semi-major
6,766.7 km
B*
3.6702e-4
RAAN
332.3195°
Arg perigee
244.5717°
Mean anomaly
115.5005°
Rev number
15,665

§ Raw data

FLOCK 4Q-71 58318U 23174BQ  26238.22527853  .00029268  00000+0  36702-3 0  99942 58318  97.3945 332.3195 0005168 244.5717 115.5005 15.59694907156655

JSON: /api/v1/satellites/58318 · /tle

For live sub-satellite position, see the globe view (requires WebGL).

§ Visibility from observer

Set your observer location to see the next 7 days of passes ≥ 10°. The values pass through the URL so the page stays shareable.

No JS? Fill the form by hand. The geolocation button needs JavaScript.